Time,TemperatureF,DewpointF,PressureIn,WindDirection,WindDirectionDegrees,WindSpeedMPH,WindSpeedGustMPH,Humidity,HourlyPrecipIn,Conditions,Clouds,dailyrainin,SoftwareType,DateUTC
2013-09-01 00:03:00,-999.0,-99.9,29.80,North,0,0.0,0.0,-999,-99.99,,,-99.99,,2013-09-01 04:03:00,
2013-09-01 00:25:00,73.0,70.0,29.80,North,0,0.0,0.0,91,0.00,,,0.10,,2013-09-01 04:25:00,
2013-09-01 00:54:00,73.0,70.0,29.80,North,0,0.0,0.0,91,0.00,,,0.10,,2013-09-01 04:54:00,
2013-09-01 01:12:00,73.0,71.0,29.80,North,0,0.0,0.0,92,0.00,,,0.10,,2013-09-01 05:12:00,
2013-09-01 01:23:00,73.0,71.0,29.80,North,0,0.0,0.0,92,0.00,,,0.10,,2013-09-01 05:23:00,
2013-09-01 01:34:00,73.0,71.0,29.80,North,0,0.0,0.0,92,0.00,,,0.10,,2013-09-01 05:34:00,
2013-09-01 01:52:00,72.0,70.0,29.80,North,0,0.0,0.0,93,0.00,,,0.10,,2013-09-01 05:52:00,
2013-09-01 02:22:00,71.0,69.0,29.80,North,0,0.0,0.0,93,0.00,,,0.10,,2013-09-01 06:22:00,
2013-09-01 02:52:00,71.0,69.0,29.82,North,0,0.0,0.0,93,0.00,,,0.10,,2013-09-01 06:52:00,
2013-09-01 03:22:00,71.0,69.0,29.80,North,0,0.0,0.0,94,0.00,,,0.10,,2013-09-01 07:22:00,
2013-09-01 03:52:00,70.0,68.0,29.80,North,0,0.0,0.0,94,0.00,,,0.10,,2013-09-01 07:52:00,
2013-09-01 04:11:00,70.0,68.0,29.79,North,0,0.0,0.0,94,0.00,,,0.10,,2013-09-01 08:11:00,
2013-09-01 04:22:00,70.0,68.0,29.79,North,0,0.0,0.0,94,0.00,,,0.10,,2013-09-01 08:22:00,
2013-09-01 04:52:00,70.0,68.0,29.80,North,0,0.0,0.0,95,0.00,,,0.10,,2013-09-01 08:52:00,
2013-09-01 05:11:00,70.0,68.0,29.80,North,0,0.0,0.0,95,0.00,,,0.10,,2013-09-01 09:11:00,
2013-09-01 05:22:00,70.0,68.0,29.80,North,0,0.0,0.0,95,0.00,,,0.10,,2013-09-01 09:22:00,
2013-09-01 05:53:00,70.0,68.0,29.80,North,0,0.0,0.0,94,0.00,,,0.10,,2013-09-01 09:53:00,
2013-09-01 06:23:00,69.0,67.0,29.80,North,0,0.0,0.0,94,0.00,,,0.08,,2013-09-01 10:23:00,
2013-09-01 06:53:00,69.0,67.0,29.80,North,0,0.0,0.0,94,0.00,,,0.04,,2013-09-01 10:53:00,
2013-09-01 07:22:00,69.0,68.0,29.82,North,0,0.0,0.0,95,0.00,,,0.02,,2013-09-01 11:22:00,
2013-09-01 07:32:00,69.0,68.0,29.82,North,0,0.0,0.0,95,0.00,,,0.02,,2013-09-01 11:32:00,
2013-09-01 07:52:00,68.0,66.0,29.82,North,0,0.0,0.0,94,0.00,,,0.02,,2013-09-01 11:52:00,
2013-09-01 08:22:00,68.0,66.0,29.82,North,0,0.0,0.0,94,0.00,,,0.02,,2013-09-01 12:22:00,
2013-09-01 08:52:00,69.0,67.0,29.82,North,0,0.0,0.0,93,0.00,,,0.02,,2013-09-01 12:52:00,
2013-09-01 09:21:00,69.0,67.0,29.82,North,0,0.0,0.0,93,0.00,,,0.02,,2013-09-01 13:21:00,
2013-09-01 09:52:00,71.0,68.0,29.82,North,0,0.0,0.0,89,0.00,,,0.02,,2013-09-01 13:52:00,
2013-09-01 10:11:00,72.0,68.0,29.82,North,0,0.0,0.0,88,0.00,,,0.02,,2013-09-01 14:11:00,
2013-09-01 10:22:00,72.0,68.0,29.82,North,0,0.0,0.0,88,0.00,,,0.02,,2013-09-01 14:22:00,
2013-09-01 10:52:00,73.0,68.0,29.82,North,0,0.0,0.0,83,0.00,,,0.02,,2013-09-01 14:52:00,
2013-09-01 11:11:00,73.0,68.0,29.82,North,0,0.0,0.0,84,0.00,,,0.02,,2013-09-01 15:11:00,
2013-09-01 11:23:00,73.0,68.0,29.82,North,0,0.0,0.0,84,0.00,,,0.02,,2013-09-01 15:23:00,
2013-09-01 11:55:00,76.0,69.0,29.83,North,0,0.0,0.0,79,0.00,,,0.00,,2013-09-01 15:55:00,
2013-09-01 12:05:00,76.0,69.0,29.83,North,0,0.0,0.0,79,0.00,,,0.00,,2013-09-01 16:05:00,
2013-09-01 12:24:00,79.0,70.0,29.82,North,0,0.0,0.0,75,0.00,,,0.00,,2013-09-01 16:24:00,
2013-09-01 12:53:00,81.0,71.0,29.82,North,0,0.0,0.0,72,0.00,,,0.00,,2013-09-01 16:53:00,
2013-09-01 13:23:00,82.0,71.0,29.82,North,0,0.0,0.0,70,2.81,,,2.81,,2013-09-01 17:23:00,
2013-09-01 13:52:00,82.0,71.0,29.82,North,0,0.0,0.0,70,2.81,,,2.81,,2013-09-01 17:52:00,
2013-09-01 14:22:00,83.0,71.0,29.80,North,0,0.0,0.0,67,1.63,,,2.81,,2013-09-01 18:22:00,
2013-09-01 14:52:00,84.0,71.0,29.80,North,0,0.0,0.0,65,0.00,,,2.81,,2013-09-01 18:52:00,
2013-09-01 16:52:00,87.0,71.0,29.77,North,0,0.0,0.0,59,0.00,,,2.81,,2013-09-01 20:52:00,
2013-09-01 17:11:00,87.0,71.0,29.77,North,0,0.0,0.0,59,0.00,,,2.81,,2013-09-01 21:11:00,
2013-09-01 17:22:00,87.0,71.0,29.77,North,0,0.0,0.0,59,0.00,,,2.81,,2013-09-01 21:22:00,
2013-09-01 17:55:00,87.0,70.0,29.77,North,0,0.0,0.0,58,0.00,,,2.81,,2013-09-01 21:55:00,
2013-09-01 18:15:00,87.0,70.0,29.77,North,0,0.0,0.0,58,0.00,,,2.81,,2013-09-01 22:15:00,
2013-09-01 18:24:00,87.0,70.0,29.77,North,0,0.0,0.0,58,0.00,,,2.81,,2013-09-01 22:24:00,
2013-09-01 18:53:00,84.0,69.0,29.75,North,0,0.0,0.0,61,0.00,,,2.81,,2013-09-01 22:53:00,
2013-09-01 19:12:00,83.0,69.0,29.77,North,0,0.0,0.0,63,0.00,,,2.81,,2013-09-01 23:12:00,
2013-09-01 19:23:00,83.0,69.0,29.77,North,0,0.0,0.0,63,0.00,,,2.81,,2013-09-01 23:23:00,
2013-09-01 19:53:00,80.0,69.0,29.77,North,0,0.0,0.0,69,0.00,,,2.81,,2013-09-01 23:53:00,
2013-09-01 20:22:00,79.0,69.0,29.77,North,0,0.0,0.0,72,0.00,,,2.81,,2013-09-02 00:22:00,
2013-09-01 20:52:00,76.0,69.0,29.78,North,0,0.0,0.0,78,0.00,,,2.81,,2013-09-02 00:52:00,
2013-09-01 21:22:00,75.0,69.0,29.79,North,0,0.0,0.0,81,0.00,,,2.81,,2013-09-02 01:22:00,
2013-09-01 21:52:00,75.0,69.0,29.79,North,0,0.0,0.0,82,0.00,,,2.81,,2013-09-02 01:52:00,
2013-09-01 22:02:00,75.0,69.0,29.79,North,0,0.0,0.0,82,0.00,,,2.81,,2013-09-02 02:02:00,
2013-09-01 22:12:00,75.0,69.0,29.79,North,0,0.0,0.0,82,0.00,,,2.81,,2013-09-02 02:12:00,
2013-09-01 22:22:00,75.0,69.0,29.79,North,0,0.0,0.0,82,0.00,,,2.81,,2013-09-02 02:22:00,
2013-09-01 22:52:00,73.0,68.0,29.80,North,0,0.0,0.0,85,0.00,,,2.81,,2013-09-02 02:52:00,
2013-09-01 23:11:00,73.0,68.0,29.80,North,0,0.0,0.0,85,0.00,,,2.81,,2013-09-02 03:11:00,
2013-09-01 23:22:00,73.0,68.0,29.80,North,0,0.0,0.0,85,0.00,,,2.81,,2013-09-02 03:22:00,
2013-09-01 23:34:00,73.0,68.0,29.80,North,0,0.0,0.0,85,0.00,,,2.81,,2013-09-02 03:34:00,
2013-09-01 23:56:00,73.0,68.0,29.80,North,0,0.0,0.0,85,0.00,,,2.81,,2013-09-02 03:56:00,